,,PA_Meas_PMT16A,,PR_Meas_QMR101_102,,RH_Meas_QMH101,,SR_Meas_QMS101,,TA_Meas_QMH101,,GenWind,,GenWind,
time,status,PA,status,PR,status,RH,status,SR,status,TA,status,DirAvg,status,SpdAvg,
2012-05-06, 00:00:05,VALID,917.288,VALID,0,VALID,93.9967,VALID,0,VALID,21.2226,VALID,6,VALID,0.582031,
2012-05-06, 00:01:05,VALID,917.296,VALID,0,VALID,94.0577,VALID,0,VALID,21.1819,VALID,6,VALID,0.335938,
2012-05-06, 00:02:05,VALID,917.267,VALID,0,VALID,94.0958,VALID,0,VALID,21.1836,VALID,6,VALID,0.401563,
2012-05-06, 00:03:05,VALID,917.26,VALID,0,VALID,94.1339,VALID,0,VALID,21.2031,VALID,6,VALID,0.540625,
2012-05-06, 00:04:05,VALID,917.237,VALID,0,VALID,94.1034,VALID,0,VALID,21.1624,VALID,6,VALID,0.11875,
2012-05-06, 00:05:05,VALID,917.182,VALID,0,VALID,94.0653,VALID,0,VALID,21.1624,VALID,6,VALID,0.370313,
2012-05-06, 00:06:05,VALID,917.171,VALID,0,VALID,94.1034,VALID,0,VALID,21.1836,VALID,5,VALID,0.670703,
2012-05-06, 00:07:05,VALID,917.143,VALID,0,VALID,94.1949,VALID,0,VALID,21.1819,VALID,5,VALID,0.326172,
2012-05-06, 00:08:05,VALID,917.13,VALID,0,VALID,94.1873,VALID,0,VALID,21.1836,VALID,5,VALID,0.590234,
2012-05-06, 00:09:05,VALID,917.101,VALID,0,VALID,94.2635,VALID,0,VALID,21.1624,VALID,5,VALID,0.612891,
2012-05-06, 00:10:05,VALID,917.094,VALID,0,VALID,94.3017,VALID,0,VALID,21.1429,VALID,5,VALID,0.519531,
2012-05-06, 00:11:05,VALID,917.073,VALID,0,VALID,94.3321,VALID,0,VALID,21.1234,VALID,5,VALID,0.828516,
2012-05-06, 00:12:05,VALID,917.083,VALID,0,VALID,94.355,VALID,0,VALID,21.1039,VALID,5,VALID,0.882813,
2012-05-06, 00:13:05,VALID,917.096,VALID,0,VALID,94.477,VALID,0,VALID,21.0844,VALID,360,VALID,1.18477,
2012-05-06, 00:14:05,VALID,917.039,VALID,0,VALID,94.5609,VALID,0,VALID,21.0844,VALID,360,VALID,0.858594,
2012-05-06, 00:15:05,VALID,917.043,VALID,0,VALID,94.6142,VALID,0.107441,VALID,21.0649,VALID,360,VALID,0.653906,
2012-05-06, 00:16:05,VALID,917.044,VALID,0,VALID,94.5913,VALID,0,VALID,21.0649,VALID,360,VALID,0.334375,
2012-05-06, 00:17:05,VALID,917.021,VALID,0,VALID,94.6142,VALID,0,VALID,21.0665,VALID,360,VALID,0.722266,
2012-05-06, 00:18:05,VALID,917.034,VALID,0,VALID,94.6752,VALID,0,VALID,21.0649,VALID,360,VALID,0.830859,
2012-05-06, 00:19:05,VALID,917.034,VALID,0,VALID,94.6371,VALID,0,VALID,21.0454,VALID,3,VALID,1.25352,
2012-05-06, 00:20:05,VALID,917.011,VALID,0,VALID,94.6905,VALID,0,VALID,21.0454,VALID,2,VALID,0.442969,
2012-05-06, 00:21:05,VALID,916.986,VALID,0,VALID,94.7362,VALID,0,VALID,21.086,VALID,355,VALID,0.412109,
2012-05-06, 00:22:05,VALID,916.958,VALID,0,VALID,94.6218,VALID,0,VALID,21.086,VALID,355,VALID,0.359766,
2012-05-06, 00:23:05,VALID,916.981,VALID,0,VALID,94.6523,VALID,0,VALID,21.0454,VALID,355,VALID,0.511719,
2012-05-06, 00:24:05,VALID,916.954,VALID,0,VALID,94.5761,VALID,0,VALID,21.0454,VALID,355,VALID,0.478906,
2012-05-06, 00:25:05,VALID,916.902,VALID,0,VALID,94.6676,VALID,0,VALID,21.0454,VALID,356,VALID,1.20078,
2012-05-06, 00:26:05,VALID,916.863,VALID,0,VALID,94.6752,VALID,0,VALID,21.0454,VALID,356,VALID,0.592969,
2012-05-06, 00:27:05,VALID,916.85,VALID,0,VALID,94.6066,VALID,0,VALID,21.0454,VALID,356,VALID,0.982813,
2012-05-06, 00:28:04,VALID,916.823,VALID,0,VALID,94.5532,VALID,0,VALID,21.0259,VALID,356,VALID,0.787109,
2012-05-06, 00:29:04,VALID,916.816,VALID,0,VALID,94.4846,VALID,0,VALID,21.008,VALID,9,VALID,1.10039,
2012-05-06, 00:30:04,VALID,916.84,VALID,0,VALID,94.4999,VALID,0,VALID,20.9885,VALID,9,VALID,0.975781,
2012-05-06, 00:31:04,VALID,916.844,VALID,0,VALID,94.6142,VALID,0,VALID,20.9674,VALID,330,VALID,1.21914,
2012-05-06, 00:32:04,VALID,916.847,VALID,0,VALID,94.5456,VALID,0,VALID,20.9674,VALID,338,VALID,0.60625,
2012-05-06, 00:33:04,VALID,916.811,VALID,0,VALID,94.6066,VALID,0,VALID,20.9479,VALID,338,VALID,0.715625,
2012-05-06, 00:34:04,VALID,916.817,VALID,0,VALID,94.7743,VALID,0,VALID,20.9479,VALID,338,VALID,0.644141,
2012-05-06, 00:35:04,VALID,916.796,VALID,0,VALID,94.7896,VALID,0,VALID,20.9284,VALID,338,VALID,0.790625,
2012-05-06, 00:36:04,VALID,916.796,VALID,0,VALID,94.7209,VALID,0,VALID,20.8894,VALID,338,VALID,0.599219,
2012-05-06, 00:37:04,VALID,916.798,VALID,0,VALID,94.7896,VALID,0.107441,VALID,20.8504,VALID,338,VALID,0.621094,
2012-05-06, 00:38:04,VALID,916.787,VALID,0,VALID,94.8582,VALID,0,VALID,20.8309,VALID,350,VALID,0.807031,
2012-05-06, 00:39:04,VALID,916.78,VALID,0,VALID,94.9115,VALID,0,VALID,20.8113,VALID,350,VALID,0.882422,
2012-05-06, 00:40:04,VALID,916.802,VALID,0,VALID,94.9496,VALID,0,VALID,20.7918,VALID,350,VALID,0.355469,
2012-05-06, 00:41:04,VALID,916.805,VALID,0,VALID,95.003,VALID,0,VALID,20.8324,VALID,350,VALID,0.0652344,
2012-05-06, 00:42:04,VALID,916.792,VALID,0,VALID,95.0335,VALID,0,VALID,20.8324,VALID,315,VALID,0.635938,
2012-05-06, 00:43:04,VALID,916.824,VALID,0,VALID,95.0106,VALID,0,VALID,20.8519,VALID,316,VALID,0.442187,
2012-05-06, 00:44:04,VALID,916.818,VALID,0,VALID,94.9496,VALID,0,VALID,20.8113,VALID,317,VALID,0.461719,
2012-05-06, 00:45:04,VALID,916.82,VALID,0,VALID,94.8505,VALID,0,VALID,20.8113,VALID,317,VALID,0.345703,
2012-05-06, 00:46:04,VALID,916.789,VALID,0,VALID,94.8887,VALID,0,VALID,20.7918,VALID,317,VALID,0.0121094,
2012-05-06, 00:47:04,VALID,916.804,VALID,0,VALID,94.8887,VALID,0,VALID,20.7918,VALID,317,VALID,0,
2012-05-06, 00:48:04,VALID,916.797,VALID,0,VALID,94.9268,VALID,0,VALID,20.7918,VALID,317,VALID,0,
2012-05-06, 00:49:04,VALID,916.782,VALID,0,VALID,94.9496,VALID,0,VALID,20.7918,VALID,317,VALID,0,
2012-05-06, 00:50:04,VALID,916.781,VALID,0,VALID,94.9192,VALID,0,VALID,20.8129,VALID,317,VALID,0,
2012-05-06, 00:51:04,VALID,916.839,VALID,0,VALID,95.003,VALID,0,VALID,20.8324,VALID,317,VALID,0,
2012-05-06, 00:52:04,VALID,916.817,VALID,0,VALID,94.9496,VALID,0,VALID,20.8324,VALID,317,VALID,0,
2012-05-06, 00:53:04,VALID,916.811,VALID,0,VALID,94.9192,VALID,0,VALID,20.8324,VALID,317,VALID,0,
2012-05-06, 00:54:04,VALID,916.826,VALID,0,VALID,94.8505,VALID,0,VALID,20.8324,VALID,317,VALID,0,
2012-05-06, 00:55:04,VALID,916.805,VALID,0,VALID,94.7743,VALID,0,VALID,20.8129,VALID,317,VALID,0.0121094,
2012-05-06, 00:56:04,VALID,916.795,VALID,0,VALID,94.7514,VALID,0,VALID,20.7934,VALID,317,VALID,0,
2012-05-06, 00:57:04,VALID,916.796,VALID,0,VALID,94.7057,VALID,0,VALID,20.7544,VALID,317,VALID,0,
2012-05-06, 00:58:04,VALID,916.819,VALID,0,VALID,94.6828,VALID,0,VALID,20.7333,VALID,316,VALID,0,
2012-05-06, 00:59:04,VALID,916.83,VALID,0,VALID,94.7972,VALID,0,VALID,20.7138,VALID,316,VALID,0.0742188,
2012-05-06, 01:00:04,VALID,916.809,VALID,0,VALID,94.9496,VALID,0,VALID,20.7739,VALID,316,VALID,0.469141,
2012-05-06, 01:01:04,VALID,916.816,VALID,0,VALID,94.9801,VALID,0,VALID,20.7723,VALID,317,VALID,0,
2012-05-06, 01:02:04,VALID,916.781,VALID,0,VALID,94.9115,VALID,0,VALID,20.7934,VALID,317,VALID,0,
2012-05-06, 01:03:04,VALID,916.78,VALID,0,VALID,94.6828,VALID,0,VALID,20.7349,VALID,317,VALID,0.200391,
2012-05-06, 01:04:04,VALID,916.801,VALID,0,VALID,94.7972,VALID,0,VALID,20.7349,VALID,317,VALID,0.196875,
2012-05-06, 01:05:04,VALID,916.819,VALID,0,VALID,94.7972,VALID,0,VALID,20.7154,VALID,317,VALID,0.0257812,
2012-05-06, 01:06:04,VALID,916.842,VALID,0,VALID,94.881,VALID,0,VALID,20.6959,VALID,317,VALID,0.353906,
2012-05-06, 01:07:04,VALID,916.887,VALID,0,VALID,94.9573,VALID,0,VALID,20.6943,VALID,317,VALID,0.248047,
2012-05-06, 01:08:04,VALID,916.88,VALID,0,VALID,94.9725,VALID,0,VALID,20.7154,VALID,317,VALID,0.328516,
2012-05-06, 01:09:04,VALID,916.853,VALID,0,VALID,94.9801,VALID,0,VALID,20.6943,VALID,316,VALID,0.544141,
2012-05-06, 01:10:04,VALID,916.839,VALID,0,VALID,94.9801,VALID,0,VALID,20.7154,VALID,317,VALID,0.476563,
2012-05-06, 01:11:04,VALID,916.841,VALID,0,VALID,94.942,VALID,0,VALID,20.717,VALID,317,VALID,0.258203,
2012-05-06, 01:12:04,VALID,916.819,VALID,0,VALID,94.9573,VALID,0,VALID,20.6553,VALID,317,VALID,0.157031,
2012-05-06, 01:13:04,VALID,916.794,VALID,0,VALID,94.9649,VALID,0,VALID,20.6764,VALID,317,VALID,0,
2012-05-06, 01:14:04,VALID,916.804,VALID,0,VALID,94.9801,VALID,0,VALID,20.6764,VALID,317,VALID,0.125,
2012-05-06, 01:15:04,VALID,916.784,VALID,0,VALID,95.0335,VALID,0,VALID,20.6764,VALID,317,VALID,0.0980469,
2012-05-06, 01:16:04,VALID,916.759,VALID,0,VALID,95.0183,VALID,0,VALID,20.6764,VALID,317,VALID,0,
2012-05-06, 01:17:04,VALID,916.749,VALID,0,VALID,95.0488,VALID,0,VALID,20.6959,VALID,317,VALID,0,
2012-05-06, 01:18:04,VALID,916.737,VALID,0,VALID,94.9954,VALID,0,VALID,20.6959,VALID,317,VALID,0,
2012-05-06, 01:19:04,VALID,916.734,VALID,0,VALID,94.9649,VALID,0,VALID,20.6943,VALID,317,VALID,0.165625,
2012-05-06, 01:20:04,VALID,916.702,VALID,0,VALID,94.82,VALID,0,VALID,20.6959,VALID,317,VALID,0.137891,
2012-05-06, 01:21:04,VALID,916.7,VALID,0,VALID,94.7667,VALID,0,VALID,20.6959,VALID,317,VALID,0.238672,
2012-05-06, 01:22:04,VALID,916.681,VALID,0,VALID,94.82,VALID,0,VALID,20.6748,VALID,317,VALID,0.497266,
2012-05-06, 01:23:04,VALID,916.652,VALID,0,VALID,94.881,VALID,0,VALID,20.6764,VALID,317,VALID,0.542969,
2012-05-06, 01:24:04,VALID,916.655,VALID,0,VALID,94.9115,VALID,0,VALID,20.6748,VALID,317,VALID,0.3625,
2012-05-06, 01:25:04,VALID,916.668,VALID,0,VALID,94.8658,VALID,0,VALID,20.6553,VALID,317,VALID,0.167187,
2012-05-06, 01:26:04,VALID,916.667,VALID,0,VALID,94.8277,VALID,0,VALID,20.6569,VALID,317,VALID,0,
2012-05-06, 01:27:04,VALID,916.64,VALID,0,VALID,94.7819,VALID,0,VALID,20.5968,VALID,317,VALID,0,
2012-05-06, 01:28:04,VALID,916.662,VALID,0,VALID,94.8658,VALID,0,VALID,20.6163,VALID,317,VALID,0,
2012-05-06, 01:29:04,VALID,916.633,VALID,0,VALID,94.9344,VALID,0,VALID,20.6374,VALID,317,VALID,0,
2012-05-06, 01:30:04,VALID,916.648,VALID,0,VALID,94.942,VALID,0,VALID,20.6358,VALID,317,VALID,0,
2012-05-06, 01:31:04,VALID,916.62,VALID,0,VALID,94.8353,VALID,0,VALID,20.6179,VALID,317,VALID,0,
2012-05-06, 01:32:04,VALID,916.659,VALID,0,VALID,94.7133,VALID,0,VALID,20.6179,VALID,317,VALID,0,
2012-05-06, 01:33:04,VALID,916.629,VALID,0,VALID,94.4922,VALID,0,VALID,20.5984,VALID,317,VALID,0,
2012-05-06, 01:34:04,VALID,916.616,VALID,0,VALID,94.2864,VALID,0,VALID,20.5399,VALID,317,VALID,0,
2012-05-06, 01:35:04,VALID,916.624,VALID,0,VALID,94.1034,VALID,0,VALID,20.5009,VALID,317,VALID,0,
2012-05-06, 01:36:04,VALID,916.634,VALID,0,VALID,94.3245,VALID,0,VALID,20.4813,VALID,317,VALID,0.329297,
2012-05-06, 01:37:04,VALID,916.601,VALID,0,VALID,94.3321,VALID,0,VALID,20.4813,VALID,317,VALID,0.333203,
2012-05-06, 01:38:04,VALID,916.581,VALID,0,VALID,94.3474,VALID,0,VALID,20.4228,VALID,317,VALID,0.370703,
2012-05-06, 01:39:04,VALID,916.593,VALID,0,VALID,94.4846,VALID,0,VALID,20.4228,VALID,317,VALID,0.614453,
2012-05-06, 01:40:04,VALID,916.542,VALID,0,VALID,94.8887,VALID,0,VALID,20.4423,VALID,317,VALID,0.619531,
2012-05-06, 01:41:04,VALID,916.513,VALID,0,VALID,95.0716,VALID,0,VALID,20.4618,VALID,327,VALID,0.742188,
2012-05-06, 01:42:04,VALID,916.469,VALID,0,VALID,95.186,VALID,0,VALID,20.4618,VALID,338,VALID,0.505078,
2012-05-06, 01:43:04,VALID,916.485,VALID,0,VALID,95.0335,VALID,0,VALID,20.4228,VALID,338,VALID,0.186719,
2012-05-06, 01:44:04,VALID,916.489,VALID,0,VALID,95.0335,VALID,0,VALID,20.4228,VALID,338,VALID,0,
2012-05-06, 01:45:04,VALID,916.451,VALID,0,VALID,95.2317,VALID,0,VALID,20.4228,VALID,338,VALID,0,
2012-05-06, 01:46:04,VALID,916.445,VALID,0,VALID,95.1631,VALID,0,VALID,20.3838,VALID,338,VALID,0,
2012-05-06, 01:47:04,VALID,916.385,VALID,0,VALID,95.2775,VALID,0,VALID,20.4033,VALID,338,VALID,0.0296875,
2012-05-06, 01:48:04,VALID,916.395,VALID,0,VALID,95.3994,VALID,0,VALID,20.4228,VALID,338,VALID,0.275781,
2012-05-06, 01:49:04,VALID,916.344,VALID,0,VALID,95.5062,VALID,0,VALID,20.4618,VALID,338,VALID,0,
2012-05-06, 01:50:04,VALID,916.372,VALID,0,VALID,95.5367,VALID,0,VALID,20.5009,VALID,338,VALID,0,
2012-05-06, 01:51:04,VALID,916.333,VALID,0,VALID,95.4528,VALID,0,VALID,20.4813,VALID,338,VALID,0.189844,
2012-05-06, 01:52:04,VALID,916.314,VALID,0,VALID,95.4223,VALID,0,VALID,20.4618,VALID,338,VALID,0,
2012-05-06, 01:53:04,VALID,916.321,VALID,0,VALID,95.4909,VALID,0,VALID,20.5024,VALID,338,VALID,0,
2012-05-06, 01:54:04,VALID,916.325,VALID,0,VALID,95.3842,VALID,0,VALID,20.4423,VALID,338,VALID,0,
2012-05-06, 01:55:04,VALID,916.273,VALID,0,VALID,95.468,VALID,0,VALID,20.4228,VALID,338,VALID,0,
2012-05-06, 01:56:04,VALID,916.26,VALID,0,VALID,95.6129,VALID,0,VALID,20.4033,VALID,338,VALID,0,
2012-05-06, 01:57:04,VALID,916.205,VALID,0,VALID,95.6891,VALID,0,VALID,20.4228,VALID,338,VALID,0.0417969,
2012-05-06, 01:58:04,VALID,916.192,VALID,0,VALID,95.7958,VALID,0,VALID,20.4634,VALID,338,VALID,0.208203,
2012-05-06, 01:59:04,VALID,916.168,VALID,0,VALID,95.9102,VALID,0,VALID,20.4813,VALID,338,VALID,0.214844,
2012-05-06, 02:00:04,VALID,916.168,VALID,0,VALID,95.9026,VALID,0,VALID,20.4634,VALID,338,VALID,0.242969,
2012-05-06, 02:01:04,VALID,916.168,VALID,0,VALID,95.6281,VALID,0,VALID,20.3854,VALID,338,VALID,0,
2012-05-06, 02:02:04,VALID,916.17,VALID,0,VALID,95.6053,VALID,0,VALID,20.3253,VALID,338,VALID,0,
2012-05-06, 02:03:04,VALID,916.171,VALID,0,VALID,95.7958,VALID,0,VALID,20.3448,VALID,338,VALID,0.121094,
2012-05-06, 02:04:04,VALID,916.159,VALID,0,VALID,95.651,VALID,0,VALID,20.3058,VALID,338,VALID,0.3375,
2012-05-06, 02:05:04,VALID,916.143,VALID,0,VALID,95.651,VALID,0,VALID,20.2473,VALID,338,VALID,0.390625,
2012-05-06, 02:06:04,VALID,916.108,VALID,0,VALID,95.8035,VALID,0,VALID,20.2473,VALID,338,VALID,0.412891,
2012-05-06, 02:07:04,VALID,916.117,VALID,0,VALID,95.9026,VALID,0,VALID,20.2473,VALID,338,VALID,0.239063,
2012-05-06, 02:08:04,VALID,916.136,VALID,0,VALID,95.9102,VALID,0,VALID,20.2489,VALID,338,VALID,0.601172,
2012-05-06, 02:09:04,VALID,916.068,VALID,0,VALID,96.0093,VALID,0,VALID,20.2278,VALID,338,VALID,0.351172,
2012-05-06, 02:10:04,VALID,916.086,VALID,0,VALID,96.1008,VALID,0.107441,VALID,20.2263,VALID,352,VALID,0.826953,
2012-05-06, 02:11:04,VALID,916.083,VALID,0,VALID,96.1999,VALID,0.107441,VALID,20.2263,VALID,356,VALID,1.35664,
2012-05-06, 02:12:04,VALID,916.055,VALID,0,VALID,96.2761,VALID,0,VALID,20.2668,VALID,331,VALID,0.654297,
2012-05-06, 02:13:04,VALID,916.029,VALID,0,VALID,96.3829,VALID,0,VALID,20.2879,VALID,351,VALID,0.880859,
2012-05-06, 02:14:04,VALID,916.043,VALID,0,VALID,96.3981,VALID,0,VALID,20.2684,VALID,351,VALID,0.558594,
2012-05-06, 02:15:04,VALID,916.039,VALID,0,VALID,96.4286,VALID,0,VALID,20.2668,VALID,351,VALID,1.08125,
2012-05-06, 02:16:04,VALID,916.015,VALID,0,VALID,96.4515,VALID,0,VALID,20.2473,VALID,351,VALID,0.521094,
2012-05-06, 02:17:04,VALID,916.017,VALID,0,VALID,96.4133,VALID,0,VALID,20.2489,VALID,351,VALID,0.767187,
2012-05-06, 02:18:04,VALID,916.009,VALID,0,VALID,96.3981,VALID,0,VALID,20.2083,VALID,351,VALID,0.982422,
2012-05-06, 02:19:04,VALID,916.035,VALID,0,VALID,96.3905,VALID,0,VALID,20.2083,VALID,351,VALID,0.515625,
2012-05-06, 02:20:04,VALID,916.001,VALID,0,VALID,96.3447,VALID,0,VALID,20.1888,VALID,351,VALID,0.988672,
2012-05-06, 02:21:04,VALID,916.008,VALID,0,VALID,96.3371,VALID,0,VALID,20.2098,VALID,351,VALID,0.573047,
2012-05-06, 02:22:04,VALID,916.002,VALID,0,VALID,96.3295,VALID,0,VALID,20.2098,VALID,351,VALID,0.394922,
2012-05-06, 02:23:04,VALID,915.976,VALID,0,VALID,96.2837,VALID,0,VALID,20.2098,VALID,352,VALID,0.616406,
2012-05-06, 02:24:04,VALID,915.966,VALID,0,VALID,96.2456,VALID,0,VALID,20.2098,VALID,351,VALID,0.64375,
2012-05-06, 02:25:04,VALID,916,VALID,0,VALID,96.2456,VALID,0.107441,VALID,20.1873,VALID,351,VALID,0.512891,
2012-05-06, 02:26:04,VALID,915.965,VALID,0,VALID,96.2837,VALID,0.107441,VALID,20.2263,VALID,351,VALID,0.176953,
2012-05-06, 02:27:04,VALID,915.95,VALID,0,VALID,96.3219,VALID,0,VALID,20.2653,VALID,351,VALID,0.210156,
2012-05-06, 02:28:04,VALID,915.947,VALID,0,VALID,96.3752,VALID,0.107441,VALID,20.3043,VALID,351,VALID,0,
2012-05-06, 02:29:04,VALID,915.916,VALID,0,VALID,96.3676,VALID,0,VALID,20.3253,VALID,351,VALID,0,
2012-05-06, 02:30:04,VALID,915.912,VALID,0,VALID,96.3829,VALID,0,VALID,20.2848,VALID,351,VALID,0,
2012-05-06, 02:31:04,VALID,915.929,VALID,0,VALID,96.3981,VALID,0.107441,VALID,20.3238,VALID,351,VALID,0,
2012-05-06, 02:32:04,VALID,915.951,VALID,0,VALID,96.3447,VALID,0,VALID,20.3058,VALID,351,VALID,0,
2012-05-06, 02:33:04,VALID,915.948,VALID,0,VALID,96.3219,VALID,0,VALID,20.2848,VALID,351,VALID,0,
2012-05-06, 02:34:04,VALID,915.939,VALID,0,VALID,96.1541,VALID,0.107441,VALID,20.2458,VALID,351,VALID,0,
2012-05-06, 02:35:04,VALID,915.954,VALID,0,VALID,96.1999,VALID,0,VALID,20.2278,VALID,351,VALID,0,
2012-05-06, 02:36:04,VALID,915.932,VALID,0,VALID,96.1846,VALID,0.107441,VALID,20.1678,VALID,351,VALID,0,
2012-05-06, 02:37:04,VALID,915.928,VALID,0,VALID,96.1313,VALID,0,VALID,20.1498,VALID,351,VALID,0.386328,
2012-05-06, 02:38:04,VALID,915.905,VALID,0,VALID,96.1618,VALID,0,VALID,20.1303,VALID,351,VALID,0.275391,
2012-05-06, 02:39:04,VALID,915.894,VALID,0,VALID,96.1465,VALID,0.107441,VALID,20.1318,VALID,351,VALID,0.258203,
2012-05-06, 02:40:04,VALID,915.924,VALID,0,VALID,95.9102,VALID,0,VALID,19.9938,VALID,351,VALID,0.426953,
2012-05-06, 02:41:04,VALID,915.874,VALID,0,VALID,95.8721,VALID,0,VALID,19.9143,VALID,351,VALID,0.333594,
2012-05-06, 02:42:04,VALID,915.894,VALID,0,VALID,95.9864,VALID,0,VALID,20.0389,VALID,351,VALID,0.342969,
2012-05-06, 02:43:04,VALID,915.899,VALID,0,VALID,96.0627,VALID,0,VALID,19.9563,VALID,351,VALID,0.407422,
2012-05-06, 02:44:04,VALID,915.855,VALID,0,VALID,96.0855,VALID,0,VALID,19.9368,VALID,351,VALID,0.475391,
2012-05-06, 02:45:04,VALID,915.882,VALID,0,VALID,96.0474,VALID,0,VALID,19.8963,VALID,351,VALID,0.528906,
2012-05-06, 02:46:04,VALID,915.841,VALID,0,VALID,96.1008,VALID,0,VALID,19.8768,VALID,351,VALID,0.837891,
2012-05-06, 02:47:04,VALID,915.827,VALID,0,VALID,96.1541,VALID,0,VALID,19.8963,VALID,351,VALID,0.530469,
2012-05-06, 02:48:04,VALID,915.829,VALID,0,VALID,96.2304,VALID,0,VALID,19.8978,VALID,351,VALID,0.559766,
2012-05-06, 02:49:04,VALID,915.804,VALID,0,VALID,96.177,VALID,0,VALID,19.8378,VALID,351,VALID,0.377344,
2012-05-06, 02:50:04,VALID,915.844,VALID,0,VALID,96.2456,VALID,0,VALID,19.8378,VALID,351,VALID,0.441016,
2012-05-06, 02:51:04,VALID,915.843,VALID,0,VALID,96.2761,VALID,0,VALID,19.8588,VALID,351,VALID,0.511719,
2012-05-06, 02:52:04,VALID,915.872,VALID,0,VALID,96.3447,VALID,0,VALID,19.8183,VALID,351,VALID,0.5,
2012-05-06, 02:53:04,VALID,915.855,VALID,0,VALID,96.3447,VALID,0,VALID,19.8198,VALID,351,VALID,0.360156,
2012-05-06, 02:54:04,VALID,915.848,VALID,0,VALID,96.3447,VALID,0,VALID,19.7808,VALID,351,VALID,0.339063,
2012-05-06, 02:55:04,VALID,915.823,VALID,0,VALID,96.4133,VALID,0,VALID,19.7598,VALID,351,VALID,0,
2012-05-06, 02:56:04,VALID,915.842,VALID,0,VALID,96.4591,VALID,0,VALID,19.7583,VALID,351,VALID,0,
2012-05-06, 02:57:04,VALID,915.846,VALID,0,VALID,96.5124,VALID,0,VALID,19.7583,VALID,351,VALID,0,
2012-05-06, 02:58:04,VALID,915.819,VALID,0,VALID,96.4819,VALID,0,VALID,19.7598,VALID,351,VALID,0,
2012-05-06, 02:59:04,VALID,915.84,VALID,0,VALID,96.5201,VALID,0,VALID,19.7403,VALID,351,VALID,0,
2012-05-06, 03:00:04,VALID,915.79,VALID,0,VALID,96.5963,VALID,0,VALID,19.7598,VALID,351,VALID,0,
2012-05-06, 03:01:04,VALID,915.766,VALID,0,VALID,96.703,VALID,0,VALID,19.7583,VALID,351,VALID,0,
2012-05-06, 03:02:04,VALID,915.764,VALID,0,VALID,96.6878,VALID,0,VALID,19.7583,VALID,351,VALID,0,
2012-05-06, 03:03:04,VALID,915.721,VALID,0,VALID,96.764,VALID,0.107441,VALID,19.7778,VALID,351,VALID,0,
2012-05-06, 03:04:04,VALID,915.699,VALID,0,VALID,96.764,VALID,0.107441,VALID,19.8183,VALID,351,VALID,0,
2012-05-06, 03:05:04,VALID,915.707,VALID,0,VALID,96.7564,VALID,0.107441,VALID,19.7988,VALID,351,VALID,0,
2012-05-06, 03:06:04,VALID,915.712,VALID,0,VALID,96.7793,VALID,0,VALID,19.7583,VALID,54,VALID,0,
2012-05-06, 03:07:04,VALID,915.694,VALID,0,VALID,96.7945,VALID,0,VALID,19.7598,VALID,128,VALID,0,
2012-05-06, 03:08:04,VALID,915.671,VALID,0,VALID,96.8174,VALID,0.107441,VALID,19.7388,VALID,128,VALID,0,
2012-05-06, 03:09:04,VALID,915.649,VALID,0,VALID,96.8021,VALID,0.107441,VALID,19.7193,VALID,128,VALID,0,
2012-05-06, 03:10:04,VALID,915.642,VALID,0,VALID,96.8403,VALID,0,VALID,19.6818,VALID,128,VALID,0,
2012-05-06, 03:11:04,VALID,915.643,VALID,0,VALID,96.8784,VALID,0,VALID,19.7013,VALID,128,VALID,0,
2012-05-06, 03:12:04,VALID,915.628,VALID,0,VALID,96.9241,VALID,0,VALID,19.7013,VALID,128,VALID,0,
2012-05-06, 03:13:04,VALID,915.655,VALID,0,VALID,96.9394,VALID,0,VALID,19.7028,VALID,128,VALID,0,
2012-05-06, 03:14:04,VALID,915.652,VALID,0,VALID,96.9622,VALID,0,VALID,19.7223,VALID,125,VALID,0,
2012-05-06, 03:15:04,VALID,915.631,VALID,0,VALID,96.9851,VALID,0,VALID,19.7013,VALID,125,VALID,0,
2012-05-06, 03:16:04,VALID,915.627,VALID,0,VALID,96.9622,VALID,0,VALID,19.7028,VALID,108,VALID,0,
2012-05-06, 03:17:04,VALID,915.61,VALID,0,VALID,96.947,VALID,0,VALID,19.6428,VALID,108,VALID,0,
2012-05-06, 03:18:04,VALID,915.59,VALID,0,VALID,97.0461,VALID,0,VALID,19.6818,VALID,108,VALID,0,
2012-05-06, 03:19:04,VALID,915.61,VALID,0,VALID,97.0385,VALID,0,VALID,19.6818,VALID,108,VALID,0,
2012-05-06, 03:20:04,VALID,915.641,VALID,0,VALID,97.0461,VALID,0,VALID,19.7013,VALID,108,VALID,0,
2012-05-06, 03:21:04,VALID,915.619,VALID,0,VALID,97.0613,VALID,0,VALID,19.7013,VALID,108,VALID,0,
2012-05-06, 03:22:04,VALID,915.644,VALID,0,VALID,97.069,VALID,0,VALID,19.7013,VALID,108,VALID,0,
2012-05-06, 03:23:04,VALID,915.612,VALID,0,VALID,97.069,VALID,0,VALID,19.6623,VALID,108,VALID,0,
2012-05-06, 03:24:04,VALID,915.623,VALID,0,VALID,97.0003,VALID,0,VALID,19.6233,VALID,108,VALID,0,
2012-05-06, 03:25:04,VALID,915.602,VALID,0,VALID,96.9851,VALID,0.107441,VALID,19.5828,VALID,108,VALID,0,
2012-05-06, 03:26:04,VALID,915.631,VALID,0,VALID,97.0461,VALID,0,VALID,19.5843,VALID,108,VALID,0,
2012-05-06, 03:27:04,VALID,915.605,VALID,0,VALID,97.0842,VALID,0.107441,VALID,19.5633,VALID,108,VALID,0,
2012-05-06, 03:28:04,VALID,915.604,VALID,0,VALID,97.0918,VALID,0.107441,VALID,19.5828,VALID,108,VALID,0,
2012-05-06, 03:29:04,VALID,915.628,VALID,0,VALID,97.1071,VALID,0.107441,VALID,19.5843,VALID,108,VALID,0,
2012-05-06, 03:30:04,VALID,915.633,VALID,0,VALID,97.1147,VALID,0.107441,VALID,19.5243,VALID,108,VALID,0,
2012-05-06, 03:31:04,VALID,915.624,VALID,0,VALID,97.1223,VALID,0,VALID,19.5843,VALID,108,VALID,0,
2012-05-06, 03:32:04,VALID,915.602,VALID,0,VALID,97.1528,VALID,0.107441,VALID,19.6233,VALID,108,VALID,0,
2012-05-06, 03:33:04,VALID,915.619,VALID,0,VALID,97.1833,VALID,0.107441,VALID,19.6428,VALID,108,VALID,0,
2012-05-06, 03:34:04,VALID,915.602,VALID,0,VALID,97.2062,VALID,0,VALID,19.6818,VALID,108,VALID,0,
2012-05-06, 03:35:04,VALID,915.625,VALID,0,VALID,97.1986,VALID,0,VALID,19.6818,VALID,108,VALID,0,
2012-05-06, 03:36:04,VALID,915.609,VALID,0,VALID,97.1757,VALID,0.107441,VALID,19.6023,VALID,108,VALID,0,
2012-05-06, 03:37:04,VALID,915.589,VALID,0,VALID,97.1681,VALID,0,VALID,19.5243,VALID,108,VALID,0,
2012-05-06, 03:38:04,VALID,915.629,VALID,0,VALID,97.1452,VALID,0,VALID,19.5258,VALID,108,VALID,0,
2012-05-06, 03:39:04,VALID,915.591,VALID,0,VALID,97.1376,VALID,0,VALID,19.4868,VALID,108,VALID,0,
2012-05-06, 03:40:04,VALID,915.56,VALID,0,VALID,97.1604,VALID,0.107441,VALID,19.4868,VALID,108,VALID,0,
2012-05-06, 03:41:04,VALID,915.563,VALID,0,VALID,97.1757,VALID,0.107441,VALID,19.5063,VALID,107,VALID,0,
2012-05-06, 03:42:04,VALID,915.564,VALID,0,VALID,97.1909,VALID,0,VALID,19.5648,VALID,108,VALID,0,
2012-05-06, 03:43:04,VALID,915.525,VALID,0,VALID,97.2214,VALID,0.107441,VALID,19.6038,VALID,107,VALID,0,
2012-05-06, 03:44:04,VALID,915.552,VALID,0,VALID,97.2367,VALID,0,VALID,19.6428,VALID,107,VALID,0,
2012-05-06, 03:45:04,VALID,915.527,VALID,0,VALID,97.2367,VALID,0,VALID,19.6818,VALID,108,VALID,0,
2012-05-06, 03:46:04,VALID,915.515,VALID,0,VALID,97.2672,VALID,0,VALID,19.6413,VALID,108,VALID,0,
2012-05-06, 03:47:04,VALID,915.508,VALID,0,VALID,97.2519,VALID,0.107441,VALID,19.5243,VALID,108,VALID,0,
2012-05-06, 03:48:04,VALID,915.495,VALID,0,VALID,97.2138,VALID,0.107441,VALID,19.4868,VALID,108,VALID,0,
2012-05-06, 03:49:04,VALID,915.509,VALID,0,VALID,97.2367,VALID,0,VALID,19.4478,VALID,108,VALID,0,